This demonstration page uses our WeatherBlox Daily Observations layout. Learn more.

39.92423, -83.80882

Hourly Observations for September 15, 2018

Temp ( °F °C ) Dew Point ( °F °C ) Humidity (%) Winds ( mph kmh ) Pressure ( in mb ) Visibility ( mi km ) Precip ( " mm )
12:56 am 00:56 Clear with Mist and Fog 71 21.7 71 21.7 100 100 NE 7 11 30.1 1019 6 9.65604 0 0
1:25 am 01:25 Mostly Cloudy with Mist and Fog 70 21 70 21 100 100 NE 7 11 30.09 1019 5 8.0467 0 0
1:46 am 01:46 Mostly Cloudy with Mist and Fog 70 21 70 21 100 100 NE 6 9 30.09 1019 4 6.43736 0 0
1:56 am 01:56 Cloudy with Mist and Fog 70 21.1 70 21.1 100 100 NE 8 13 30.09 1019 4 6.43736 0 0
2:36 am 02:36 Cloudy with Mist and Fog 70 21 70 21 100 100 ENE 8 13 30.09 1019 4 6.43736 0 0
2:56 am 02:56 Cloudy with Mist and Fog 70 21.1 70 21.1 100 100 ENE 8 13 30.09 1019 3 4.82802 0 0
3:56 am 03:56 Cloudy with Mist and Fog 70 21.1 70 21.1 100 100 ENE 7 11 30.09 1019 3 4.82802 0 0
4:12 am 04:12 Cloudy with Mist and Fog 70 21 70 21 100 100 ENE 6 9 30.09 1019 2.5 4.02335 0 0
4:33 am 04:33 Partly Cloudy with Mist and Fog 70 21 70 21 100 100 ENE 5 7 30.09 1019 1.75 2.816345 0 0
4:56 am 04:56 Mostly Clear with Mist and Fog 68 20 68 20 100 100 NE 6 9 30.09 1019 2 3.21868 0 0
5:08 am 05:08 Mostly Cloudy with Mist and Fog 68 20 68 20 100 100 NE 6 9 30.09 1019 2 3.21868 0 0
5:56 am 05:56 Cloudy with Mist and Fog 69 20.6 69 20.6 100 100 NE 6 9 30.09 1019 2 3.21868 0 0
6:12 am 06:12 Cloudy with Mist and Fog 70 21 70 21 100 100 E 6 9 30.09 1019 1.75 2.816345 0 0
6:27 am 06:27 Cloudy with Mist and Fog 70 21 70 21 100 100 NE 6 9 30.09 1019 2 3.21868 0 0
6:41 am 06:41 Cloudy with Mist and Fog 70 21 70 21 100 100 NE 7 11 30.09 1019 1.75 2.816345 0 0
6:49 am 06:49 Cloudy with Mist and Fog 70 21 70 21 100 100 ENE 7 11 30.09 1019 2 3.21868 0 0
6:56 am 06:56 Cloudy with Mist and Fog 69 20.6 69 20.6 100 100 ENE 7 11 30.1 1019 2 3.21868 0 0
7:20 am 07:20 Cloudy with Mist and Fog 70 21 70 21 100 100 NE 6 9 30.09 1019 1.75 2.816345 0 0
7:41 am 07:41 Cloudy with Mist and Fog 70 21 70 21 100 100 NE 5 7 30.09 1019 2 3.21868 0 0
7:56 am 07:56 Cloudy with Mist and Fog 69 20.6 69 20.6 100 100 NE 5 7 30.11 1020 2 3.21868 0 0
8:39 am 08:39 Cloudy with Mist and Fog 70 21 70 21 100 100 E 8 13 30.12 1020 3 4.82802 0 0
8:56 am 08:56 Cloudy with Mist and Fog 70 21.1 70 21.1 100 100 E 8 13 30.13 1020 5 8.0467 0 0
9:31 am 09:31 Cloudy 73 23 72 22 94 94 ENE 8 13 30.12 1020 10 16.0934 0 0
9:56 am 09:56 Cloudy 74 23.3 71 21.7 91 91 E 7 11 30.14 1021 10 16.0934 0 0
10:04 am 10:04 Mostly Cloudy 75 24 72 22 89 89 E 9 15 30.12 1020 10 16.0934 0 0
10:20 am 10:20 Partly Cloudy 75 24 72 22 89 89 ENE 8 13 30.12 1020 10 16.0934 0 0
10:56 am 10:56 Sunny 78 25.6 71 21.7 79 79 ESE 5 7 30.14 1021 10 16.0934 0 0
11:56 am 11:56 Sunny 82 27.8 71 21.7 69 69 NE 7 11 30.13 1020 10 16.0934 0 0
12:56 pm 12:56 Sunny 84 28.9 71 21.7 65 65 E 8 13 30.11 1020 10 16.0934 0 0
1:56 pm 13:56 Mostly Cloudy 85 29.4 71 21.7 63 63 E 10 17 30.11 1020 10 16.0934 0 0
2:56 pm 14:56 Mostly Cloudy 84 28.9 70 21.1 63 63 E 6 9 30.09 1019 10 16.0934 0 0
3:56 pm 15:56 Partly Cloudy 87 30.6 70 21.1 57 57 ESE 8 13 30.07 1018 10 16.0934 0 0
4:56 pm 16:56 Mostly Sunny 84 28.9 68 20 59 59 E 10 17 30.08 1019 10 16.0934 0 0
5:56 pm 17:56 Mostly Sunny 86 30 68 20 55 55 E 12 19 30.07 1018 10 16.0934 0 0
6:56 pm 18:56 Sunny 83 28.3 68 20 61 61 E 10 17 30.08 1019 10 16.0934 0 0
7:56 pm 19:56 Clear 78 25.6 68 20 71 71 ENE 6 9 30.09 1019 10 16.0934 0 0
8:56 pm 20:56 Clear 73 22.8 68 20 84 84 E 6 9 30.1 1019 10 16.0934 0 0
9:56 pm 21:56 Clear 71 21.7 68 20 90 90 E 7 11 30.11 1020 10 16.0934 0 0
10:56 pm 22:56 Clear 71 21.7 68 20 90 90 E 7 11 30.11 1020 10 16.0934 0 0
11:56 pm 23:56 Clear 69 20.6 67 19.4 93 93 E 7 11 30.11 1020 10 16.0934 0 0

Powered by AerisWeather